Flag for China Weather past 2 weeks in Changchun, Jilin, China

Now
70 °F

Clear.


Feels Like: 70 °F
Forecast: 65 / 82 °F
Wind: 10 mph from Southwest

Location: Changchun Airport

Current Time: Jul 23, 2014 at 1:38:14 AM

Latest Report: Jul 23, 2014 at 12:00 AM


Visibility: 10 mi

Pressure: 29.62 "Hg

Humidity: 88%

Dew point: 66 °F

Location of ChangchunLocation

Historic Weather in Changchun — Graph

°F

Changchun temperature yesterday

Maximum temperature yesterday: 84 °F (at 3:00 PM)
Minimum temperature yesterday: 66 °F (at 3:00 AM)
Average temperature yesterday: 75 °F

Past Weeks' High & Low Weather Summary

 TemperatureHumidityPressure
High90 °F (Jul 20, 2:00 PM)100% (Jul 14, 5:00 AM)29.89 "Hg (Jul 14, 5:00 AM)
Low59 °F (Jul 14, 5:00 AM)28% (Jul 9, 2:00 PM)29.42 "Hg (Jul 10, 9:00 AM)
Average73 °F73%29.64 "Hg
* Reported Midnight between Jul 7 and Jul 8 — Midnight between Jul 22 and Jul 23, Changchun, Weather by CustomWeather, © 2014

Note: Actual official high and low records may vary slightly from our data, if they occured in-between our weather recording intervals... More about our weather records

Advertising

Changchun weather history for previous 24 hours

 ConditionsComfort  
Time TempWeatherWind HumidityBarometerVisibility
12:00 AM
Jul 23
70 °FClear.10 mph88%29.62 "Hg10 mi
11:00 PM
Jul 22
72 °FClear.8 mph83%29.62 "Hg10 mi
10:00 PM72 °FClear.8 mph83%29.65 "Hg10 mi
9:00 PM73 °FClear.8 mph78%29.65 "Hg10 mi
8:00 PM73 °FClear.8 mph78%29.62 "Hg10 mi
7:00 PM77 °FSunny.6 mph65%29.62 "Hg10 mi
6:00 PM81 °FSunny.1 mph58%29.62 "Hg10 mi
5:00 PM82 °FPassing clouds.1 mph51%29.62 "HgN/A
4:00 PM82 °FPassing clouds.6 mph45%29.62 "HgN/A
3:00 PM84 °FPassing clouds.6 mph48%29.62 "HgN/A
2:00 PM82 °FScattered clouds.8 mph48%29.62 "HgN/A
1:00 PM82 °FScattered clouds.8 mph55%29.62 "HgN/A
12:00 PM81 °FPassing clouds.6 mph62%29.65 "HgN/A
11:00 AM81 °FPassing clouds.6 mph58%29.65 "HgN/A
10:00 AM77 °FPassing clouds.8 mph61%29.65 "HgN/A
9:00 AM75 °FPassing clouds.6 mph69%29.68 "Hg4 mi
8:00 AM73 °FFog.6 mph74%29.65 "Hg3 mi
7:00 AM70 °FFog.6 mph83%29.65 "Hg2 mi
6:00 AM68 °FFog.6 mph88%29.65 "Hg2 mi
5:00 AM66 °FFog.6 mph94%29.62 "Hg2 mi
4:00 AM66 °FFog.8 mph94%29.62 "Hg2 mi
3:00 AM66 °FPassing clouds.8 mph94%29.62 "Hg4 mi
2:00 AM68 °FPassing clouds.10 mph88%29.62 "Hg4 mi
1:00 AM68 °FPassing clouds.8 mph88%29.62 "Hg4 mi
Weather by CustomWeather, © 2014

See weather overviewHow to use our weather pages